TimeAKDT,TemperatureF,Dew PointF,Humidity,Sea Level PressureIn,VisibilityMPH,Wind Direction,Wind SpeedMPH,Gust SpeedMPH,PrecipitationIn,Events,Conditions,WindDirDegrees,DateUTC
12:47 AM,33.8,32.0,93,30.29,1.8,ENE,16.1,26.5,N/A,,Overcast,70,2013-07-12 08:47:00
12:53 AM,34.0,33.1,96,30.29,1.2,ENE,17.3,26.5,N/A,,Overcast,70,2013-07-12 08:53:00
1:20 AM,33.8,33.8,100,30.29,0.5,ENE,18.4,-,N/A,Fog,Fog,60,2013-07-12 09:20:00
1:53 AM,34.0,33.1,96,30.30,0.8,ENE,15.0,-,N/A,,Mist,70,2013-07-12 09:53:00
2:08 AM,33.8,33.8,100,30.29,1.2,ENE,16.1,-,N/A,,Overcast,70,2013-07-12 10:08:00
2:13 AM,33.8,33.8,100,30.29,3.0,ENE,17.3,-,N/A,,Overcast,70,2013-07-12 10:13:00
2:22 AM,33.8,33.8,100,30.29,1.8,ENE,16.1,-,N/A,,Overcast,70,2013-07-12 10:22:00
2:53 AM,34.0,33.1,96,30.30,1.2,ENE,13.8,-,N/A,,Overcast,70,2013-07-12 10:53:00
3:53 AM,33.1,33.1,100,30.29,0.8,ENE,17.3,-,N/A,,Overcast,70,2013-07-12 11:53:00
4:53 AM,34.0,34.0,100,30.29,0.5,East,12.7,-,N/A,Fog,Fog,80,2013-07-12 12:53:00
5:53 AM,35.1,35.1,100,30.28,0.8,ENE,15.0,-,N/A,,Mist,70,2013-07-12 13:53:00
6:53 AM,34.0,34.0,100,30.29,0.5,ENE,15.0,-,N/A,Fog,Fog,60,2013-07-12 14:53:00
7:11 AM,33.8,33.8,100,30.28,2.0,ENE,12.7,-,N/A,,Overcast,60,2013-07-12 15:11:00
7:27 AM,35.6,33.8,93,30.28,5.0,ENE,11.5,-,N/A,,Mostly Cloudy,60,2013-07-12 15:27:00
7:53 AM,35.1,33.1,92,30.28,7.0,ENE,12.7,-,N/A,,Mostly Cloudy,70,2013-07-12 15:53:00
8:14 AM,35.6,33.8,93,30.28,10.0,ENE,12.7,-,N/A,,Mostly Cloudy,70,2013-07-12 16:14:00
8:53 AM,37.0,34.0,89,30.28,10.0,ENE,13.8,-,N/A,,Mostly Cloudy,60,2013-07-12 16:53:00
9:53 AM,39.0,34.0,82,30.27,10.0,ENE,16.1,-,N/A,,Scattered Clouds,60,2013-07-12 17:53:00
10:53 AM,41.0,34.0,76,30.26,10.0,ENE,12.7,-,N/A,,Partly Cloudy,70,2013-07-12 18:53:00
11:53 AM,41.0,35.1,79,30.26,10.0,ENE,16.1,-,N/A,,Scattered Clouds,70,2013-07-12 19:53:00
12:20 PM,41.0,33.8,76,30.25,10.0,ENE,18.4,-,N/A,,Partly Cloudy,60,2013-07-12 20:20:00
12:53 PM,41.0,35.1,79,30.25,10.0,ENE,18.4,25.3,N/A,,Scattered Clouds,60,2013-07-12 20:53:00
1:53 PM,42.1,35.1,76,30.26,10.0,ENE,18.4,-,N/A,,Scattered Clouds,60,2013-07-12 21:53:00
2:53 PM,44.1,36.0,73,30.25,10.0,ENE,19.6,-,N/A,,Partly Cloudy,60,2013-07-12 22:53:00
3:53 PM,43.0,35.1,74,30.22,10.0,ENE,20.7,-,N/A,,Partly Cloudy,70,2013-07-12 23:53:00
4:53 PM,43.0,36.0,76,30.22,10.0,East,18.4,-,N/A,,Clear,80,2013-07-13 00:53:00
5:53 PM,44.1,36.0,73,30.20,10.0,East,18.4,-,N/A,,Clear,80,2013-07-13 01:53:00
6:53 PM,44.1,36.0,73,30.19,10.0,ENE,20.7,26.5,N/A,,Clear,70,2013-07-13 02:53:00
7:53 PM,44.1,36.0,73,30.18,10.0,ENE,23.0,-,N/A,,Clear,70,2013-07-13 03:53:00
8:53 PM,43.0,35.1,74,30.17,10.0,ENE,17.3,-,N/A,,Clear,70,2013-07-13 04:53:00
9:53 PM,42.1,36.0,79,30.17,10.0,ENE,16.1,-,N/A,,Partly Cloudy,70,2013-07-13 05:53:00
10:53 PM,41.0,36.0,82,30.16,10.0,ENE,18.4,-,N/A,,Partly Cloudy,60,2013-07-13 06:53:00
11:53 PM,39.9,36.0,86,30.16,10.0,ENE,18.4,-,N/A,,Partly Cloudy,60,2013-07-13 07:53:00